Location: Kermapucano
(48.0667°N, 3.3000°W)
Time: 20:08:19
(UTC+00:00)

Cosmos 1833 Rocket - Pass Details

Date: 29 November 2020
Orbit: 834 x 838 km, 71.0° (Epoch: 27 January)

Event Time Altitude Azimuth Distance (km) Brightness Sun altitude
Exits shadow 06:49:00 - 333° (NNW) 3,180 5.2 -8.4°
Reaches altitude 10° 06:50:53 10° 334° (NNW) 2,458 4.7 -8.1°
Maximum altitude 06:56:32 78° 61° (ENE) 858 2.9 -7.2°
Drops below altitude 10° 07:02:09 10° 149° (SSE) 2,440 6.1 -6.4°
Sets 07:04:35 0° 150° (SSE) 3,369 6.9 -6.0°
